Content
SEND FEEDBACK

Daily
Averages
Monthly
Summary
United States of America

MONETT, MISSOURI


Home > North America > United States > Missouri
Elevation: 1310 feet     Latitude: 36 55N     Longitude: 093 55W

WEATHER
 
SELECT A DAY
Number of Records: 125,548;   Date Range: 2/5/09 - 9/19/14
 
SHARE

PRINT THIS DATA

[ ← Previous Day ]
WEATHER ALMANAC - JANUARY 7, 2013
[ Next Day → ]
[ °C ]   °F
Weather ElementAverageHighLow
Temperature36.8 °F50 °F (2:35 pm)26.6 °F (3:35 am)
Dewpoint24 °F28.4 °F (10:35 am)19.4 °F (12:35 am)
Humidity61.5 %80 % (3:35 am)40 % (2:35 pm)
Barometer30.22 in30.32 in (12:35 am)30.10 in (10:55 pm)
Wind Speed8.7 mph17.3 mph (11:15 am)
Wind Gust18.4 mph (9:55 am)
Weather ElementAverage
Visibility10 mi
Wind DirectionSSE (161.1 °)

Weather ElementTotal
Precipitation---
Heating Degree Days26.7 (Base 65)
Averaged from 70 records on January 7, 2013
WEATHER CONDITIONS BREAKOUT
WIND DIRECTION BREAKOUT
WEATHER BY HOUR - JANUARY 7, 2013
[ °C ]   °F
Local TimeTemperatureDewpointHumidityBarometerVisibilityWind DirectionWind SpeedGust SpeedPrecipitationEventsConditions
12:35 AM28.4 °F19.4 °F69 %30.32 in10.0 miSE (140°)8.1 mphClear
12:55 AM28.4 °F19.4 °F69 %30.32 in10.0 miSE (130°)8.1 mphClear
1:15 AM30.2 °F19.4 °F64 %30.32 in10.0 miSE (130°)6.9 mphClear
1:35 AM28.4 °F19.4 °F69 %30.32 in10.0 miSE (140°)8.1 mphClear
1:55 AM30.2 °F21.2 °F69 %30.31 in10.0 miSE (130°)6.9 mphClear
2:15 AM28.4 °F21.2 °F74 %30.31 in10.0 miSE (130°)5.8 mphClear
2:35 AM28.4 °F21.2 °F74 %30.30 in10.0 miESE (120°)9.2 mphClear
2:55 AM28.4 °F21.2 °F74 %30.30 in10.0 miESE (120°)8.1 mphClear
3:15 AM28.4 °F21.2 °F74 %30.30 in10.0 miESE (120°)8.1 mphClear
3:35 AM26.6 °F21.2 °F80 %30.30 in10.0 miSE (130°)8.1 mphClear
3:55 AM26.6 °F21.2 °F80 %30.29 in10.0 miESE (120°)6.9 mphClear
4:15 AM26.6 °F21.2 °F80 %30.28 in10.0 miESE (120°)9.2 mphClear
4:35 AM26.6 °F21.2 °F80 %30.27 in10.0 miESE (120°)8.1 mphClear
4:55 AM26.6 °F21.2 °F80 %30.27 in10.0 miSE (130°)8.1 mphClear
5:15 AM26.6 °F21.2 °F80 %30.27 in10.0 miESE (120°)10.4 mphClear
5:35 AM26.6 °F21.2 °F80 %30.27 in10.0 miSE (130°)10.4 mphClear
5:55 AM28.4 °F21.2 °F74 %30.27 in10.0 miSE (130°)8.1 mphClear
6:15 AM28.4 °F21.2 °F74 %30.28 in10.0 miSE (130°)8.1 mphClear
6:35 AM28.4 °F21.2 °F74 %30.28 in10.0 miSE (130°)9.2 mphClear
6:55 AM28.4 °F21.2 °F74 %30.28 in10.0 miSE (130°)8.1 mphClear
7:15 AM28.4 °F21.2 °F74 %30.29 in10.0 miSE (130°)9.2 mphClear
7:35 AM28.4 °F21.2 °F74 %30.29 in10.0 miSE (130°)8.1 mphClear
7:55 AM28.4 °F21.2 °F74 %30.29 in10.0 miSE (130°)8.1 mphClear
8:15 AM30.2 °F23.0 °F75 %30.30 in10.0 miSE (140°)8.1 mphClear
8:35 AM32.0 °F24.8 °F75 %30.29 in10.0 miSE (140°)9.2 mphClear
8:55 AM33.8 °F26.6 °F75 %30.29 in10.0 miSSE (160°)10.4 mphClear
9:15 AM35.6 °F26.6 °F70 %30.29 in10.0 miSouth (170°)12.7 mphClear
9:35 AM37.4 °F26.6 °F65 %30.29 in10.0 miSouth (170°)11.5 mphClear
9:55 AM39.2 °F26.6 °F61 %30.29 in10.0 miSSE (160°)8.1 mph18.4 mphClear
10:15 AM41.0 °F26.6 °F57 %30.29 in10.0 miSouth (190°)11.5 mph17.3 mphClear
10:35 AM42.8 °F28.4 °F57 %30.29 in10.0 miSouth (180°)8.1 mphClear
10:55 AM44.6 °F28.4 °F53 %30.28 in10.0 miSouth (190°)12.7 mphClear
11:15 AM44.6 °F26.6 °F49 %30.26 in10.0 miSouth (190°)17.3 mphClear
11:35 AM44.6 °F26.6 °F49 %30.26 in10.0 miSSW (210°)16.1 mphClear
11:55 AM46.4 °F26.6 °F46 %30.24 in10.0 miSouth (190°)13.8 mphClear
12:15 PM46.4 °F26.6 °F46 %30.23 in10.0 miSSW (210°)13.8 mphClear
12:35 PM46.4 °F26.6 °F46 %30.21 in10.0 miSSW (210°)12.7 mphClear
12:55 PM46.4 °F26.6 °F46 %30.20 in10.0 miSSW (200°)10.4 mphClear
1:15 PM48.2 °F26.6 °F43 %30.19 in10.0 miSouth (190°)11.5 mphClear
1:35 PM48.2 °F26.6 °F43 %30.18 in10.0 miSouth (190°)8.1 mphClear
1:55 PM48.2 °F26.6 °F43 %30.18 in10.0 miSSW (210°)10.4 mphClear
2:15 PM48.2 °F26.6 °F43 %30.18 in10.0 miSSW (200°)10.4 mphClear
2:35 PM50.0 °F26.6 °F40 %30.18 in10.0 miSouth (190°)9.2 mphClear
2:55 PM50.0 °F26.6 °F40 %30.17 in10.0 miSSW (200°)10.4 mphClear
3:15 PM46.4 °F26.6 °F46 %30.17 in10.0 miSW (220°)9.2 mphClear
3:35 PM48.2 °F26.6 °F43 %30.16 in10.0 miSouth (190°)5.8 mphClear
3:55 PM50.0 °F26.6 °F40 %30.16 in10.0 miSouth (190°)11.5 mphClear
4:15 PM48.2 °F26.6 °F43 %30.16 in10.0 miSouth (190°)8.1 mphClear
4:35 PM46.4 °F24.8 °F43 %30.15 in10.0 miSouth (180°)8.1 mphClear
4:55 PM44.6 °F24.8 °F46 %30.15 in10.0 miSouth (190°)5.8 mphClear
5:15 PM42.8 °F24.8 °F49 %30.14 in10.0 miSSE (160°)4.6 mphClear
5:35 PM39.2 °F24.8 °F56 %30.13 in10.0 miSE (130°)5.8 mphClear
6:15 PM39.2 °F24.8 °F56 %30.14 in10.0 miSouth (170°)8.1 mphClear
6:35 PM39.2 °F24.8 °F56 %30.14 in10.0 miSouth (170°)6.9 mphClear
6:55 PM41.0 °F24.8 °F53 %30.14 in10.0 miSouth (190°)6.9 mphClear
7:15 PM39.2 °F24.8 °F56 %30.13 in10.0 miSouth (170°)6.9 mphClear
7:35 PM39.2 °F24.8 °F56 %30.14 in10.0 miSouth (180°)5.8 mphClear
7:55 PM39.2 °F24.8 °F56 %30.14 in10.0 miSouth (190°)5.8 mphClear
8:15 PM37.4 °F24.8 °F60 %30.14 in10.0 miSouth (180°)5.8 mphClear
8:35 PM37.4 °F24.8 °F60 %30.13 in10.0 miSouth (170°)6.9 mphClear
8:55 PM37.4 °F24.8 °F60 %30.13 in10.0 miSouth (170°)5.8 mphClear
9:15 PM35.6 °F24.8 °F65 %30.13 in10.0 miSouth (170°)5.8 mphClear
9:35 PM35.6 °F24.8 °F65 %30.12 in10.0 miSouth (170°)6.9 mphClear
9:55 PM33.8 °F24.8 °F70 %30.12 in10.0 miSE (140°)5.8 mphClear
10:15 PM33.8 °F23.0 °F65 %30.12 in10.0 miSSE (160°)5.8 mphClear
10:35 PM33.8 °F23.0 °F65 %30.11 in10.0 miSSE (150°)6.9 mphClear
10:55 PM33.8 °F23.0 °F65 %30.10 in10.0 miSSE (150°)8.1 mphClear
11:15 PM35.6 °F23.0 °F60 %30.11 in10.0 miSSE (160°)6.9 mphClear
11:35 PM33.8 °F24.8 °F70 %30.10 in10.0 miSSE (160°)9.2 mphClear
11:55 PM33.8 °F23.0 °F65 %30.10 in10.0 miSSE (150°)8.1 mphClear
Hourly data recorded from KHFJ, located miles away from Monett, Missouri







STORIES FROM OUR PARTNERS